Location: Baix
(44.7118°N, 4.7648°E)
Time: 21:50:13
(UTC+00:00)

Courier 1B Rocket - Visible Passes

Search period start: 25 November 2020 00:00
Search period end: 05 December 2020 00:00
Orbit: 920 x 1202 km, 28.2° (Epoch: 25 November)

Date Brightness Start Highest point End Pass type
(mag) Time Alt. Az. Time Alt. Az. Time Alt. Az.
25 Nov 7.8 06:07:20 10° S 06:10:47 14° SSE 06:14:10 10° SE visible
26 Nov 7.9 05:08:43 10° SSE 05:09:59 10° SSE 05:11:14 10° SSE visible
27 Nov 7.6 05:56:52 10° SSW 06:01:32 17° SSE 06:06:06 10° SE visible
28 Nov 7.6 04:56:53 10° S 05:00:41 14° SSE 05:04:27 10° SE visible
29 Nov 7.7 03:58:00 10° S 03:59:52 11° SSE 04:01:43 10° SE visible
29 Nov 7.4 05:46:57 10° SSW 05:52:17 20° S 05:57:31 10° SE visible
30 Nov 7.5 04:46:33 10° SSW 04:51:24 18° SSE 04:56:13 10° SE visible
01 Dec 7.5 03:47:28 12° S 03:50:33 15° SSE 03:54:29 10° SE visible
01 Dec 7.3 05:37:23 10° SW 05:43:03 22° S 05:48:39 10° SE visible
02 Dec 7.7 02:50:31 11° SSE 02:50:31 11° SSE 02:51:41 10° SE visible
02 Dec 7.2 04:36:54 10° SSW 04:42:08 20° S 04:47:32 10° SE visible
03 Dec 7.2 03:39:52 17° S 03:41:15 18° SSE 03:46:08 10° SE visible
03 Dec 7.1 05:28:02 10° SW 05:33:49 23° S 05:39:35 10° SE visible
04 Dec 7.6 02:42:47 13° SE 02:42:47 13° SE 02:44:18 10° SE visible
04 Dec 7.1 04:29:10 16° SSW 04:32:53 22° S 04:38:35 10° SE visible
04 Dec 7.3 06:20:04 10° SW 06:25:30 21° S 06:30:53 10° SE visible
